NORTHEAST SUFFOLK  -  Rip Current Statement Rip Current Statement        NORTHERN NASSAU  -  Rip Current Statement Rip Current Statement        NORTHERN QUEENS  -  Rip Current Statement Rip Current Statement        NORTHWEST SUFFOLK  -  Rip Current Statement Rip Current Statement        SOUTHEAST SUFFOLK  -  Rip Current Statement Rip Current Statement        SOUTHERN NASSAU  -  Rip Current Statement Rip Current Statement        SOUTHERN QUEENS  -  Rip Current Statement Rip Current Statement        SOUTHWEST SUFFOLK  -  Rip Current Statement Rip Current Statement      

Active alerts

Northern Queens
  Details for Northern Queens Rip Current Statement
Southern Queens
  Details for Southern Queens Rip Current Statement
Northern Nassau
  Details for Northern Nassau Rip Current Statement
Southern Nassau
  Details for Southern Nassau Rip Current Statement
Northwest Suffolk
  Details for Northwest Suffolk Rip Current Statement
Southwest Suffolk
  Details for Southwest Suffolk Rip Current Statement
Northeast Suffolk
  Details for Northeast Suffolk Rip Current Statement
Southeast Suffolk
  Details for Southeast Suffolk Rip Current Statement


WXM80 ListenWXM80 Stop

You find our weather info also at:

UK Metoffice

WeatherCloud

Weather Underground

Northeastern Weather Network

AWEKAS

Citizen Weather Observer Program (CWOP)

HAMweather, WeatherForYou, PWS Weather


Weather Underground History page Text

Daily Summary for October 14, 2017 Units:  Metric    English   Both
« Previous Day
Next Day »
Daily Weekly Monthly Yearly Custom
  High: Low: Average:
Temperature: 22.6 °C 16.4 °C 18.8 °C
Dew Point: 19.8 °C 15.2 °C 17.5 °C
Humidity: 97 % 82 % 92 %
Wind Speed: 8.4 km/h 0 km/h 1.8 km/h
Wind Gust: 14.8 km/h - -
Wind:- - ENE
Pressure: 1024.3 hPa 1015.5 hPa -
Precipitation: 0.51 mm    
Historical Graphs
 
 
Tabular Data for October 14, 2017
Time Temperature Dew Point Pressure Wind Wind Speed Wind Gust Humidity Rainfall Rate (Hourly)
00:04 16.4 °C 15.2 °C 1024.3 hPa Calm     92 % 0 mm
00:09 16.4 °C 15.2 °C 1024.3 hPa SE 0.5 km/h 1.9 km/h 92 % 0 mm
00:14 16.5 °C 15.2 °C 1024.3 hPa Calm   1.9 km/h 92 % 0 mm
00:19 16.5 °C 15.2 °C 1024.3 hPa Calm   1.9 km/h 92 % 0 mm
00:24 16.6 °C 15.3 °C 1024.3 hPa Calm   1.9 km/h 92 % 0 mm
00:29 16.6 °C 15.3 °C 1024.3 hPa SE 0.2 km/h 1.9 km/h 92 % 0 mm
00:34 16.6 °C 15.3 °C 1024.3 hPa SE 0.5 km/h 1.9 km/h 92 % 0 mm
00:39 16.6 °C 15.3 °C 1024.3 hPa Calm   1.6 km/h 92 % 0 mm
00:44 16.6 °C 15.3 °C 1024.3 hPa Calm     92 % 0 mm
00:49 16.7 °C 15.3 °C 1024.3 hPa Calm     92 % 0 mm
00:54 16.7 °C 15.3 °C 1024.3 hPa Calm     92 % 0 mm
00:59 16.7 °C 15.6 °C 1024.3 hPa Calm   1.9 km/h 93 % 0 mm
01:04 16.7 °C 15.6 °C 1023.9 hPa SE 0.2 km/h 1.9 km/h 93 % 0 mm
01:09 16.8 °C 15.7 °C 1023.9 hPa Calm     93 % 0 mm
01:14 16.8 °C 15.7 °C 1023.9 hPa Calm     93 % 0 mm
01:19 16.8 °C 15.7 °C 1023.9 hPa Calm   1.9 km/h 93 % 0 mm
01:24 16.8 °C 15.7 °C 1023.9 hPa Calm   1.6 km/h 93 % 0 mm
01:29 16.8 °C 15.7 °C 1023.9 hPa SE 0.3 km/h 1.9 km/h 93 % 0 mm
01:34 16.8 °C 15.7 °C 1024.3 hPa Calm     93 % 0 mm
01:39 16.7 °C 15.8 °C 1024.3 hPa Calm   1.6 km/h 94 % 0 mm
01:44 16.7 °C 15.8 °C 1023.9 hPa Calm     94 % 0 mm
01:50 16.7 °C 15.8 °C 1023.9 hPa Calm     94 % 0 mm
01:55 16.8 °C 15.8 °C 1023.9 hPa Calm     94 % 0 mm
02:00 16.8 °C 15.8 °C 1023.6 hPa Calm     94 % 0 mm
02:05 16.8 °C 15.9 °C 1023.9 hPa Calm   1.6 km/h 94 % 0 mm
02:10 16.9 °C 15.9 °C 1023.6 hPa SE 0.2 km/h 1.9 km/h 94 % 0 mm
02:15 16.9 °C 15.9 °C 1023.2 hPa SE 0.8 km/h 1.9 km/h 94 % 0 mm
02:20 16.9 °C 15.9 °C 1023.6 hPa SE 0.3 km/h 1.9 km/h 94 % 0 mm
02:25 17 °C 16 °C 1023.6 hPa Calm   1.9 km/h 94 % 0 mm
02:30 17.1 °C 16.1 °C 1023.6 hPa Calm   1.9 km/h 94 % 0 mm
02:35 17.1 °C 16.3 °C 1023.6 hPa Calm   1.9 km/h 95 % 0.25 mm
02:40 17.1 °C 16.3 °C 1023.2 hPa Calm     95 % 0.25 mm
02:45 17.2 °C 16.3 °C 1023.2 hPa Calm   1.9 km/h 95 % 0.25 mm
02:50 17.2 °C 16.3 °C 1023.6 hPa SE 0.3 km/h 1.9 km/h 95 % 0.25 mm
02:56 17.2 °C 16.3 °C 1023.2 hPa Calm   1.6 km/h 95 % 0 mm
03:01 17.2 °C 16.3 °C 1022.9 hPa SE 0.3 km/h 1.9 km/h 95 % 0.25 mm
03:06 17.2 °C 16.4 °C 1022.9 hPa East 1.3 km/h 3.7 km/h 95 % 0.25 mm
03:11 17.2 °C 16.4 °C 1022.6 hPa ENE 1.6 km/h 6.4 km/h 95 % 0 mm
03:16 17.2 °C 16.4 °C 1022.9 hPa ENE 6.9 km/h 9.3 km/h 95 % 0.25 mm
03:21 17.2 °C 16.3 °C 1022.6 hPa ENE 4.8 km/h 12.9 km/h 95 % 0 mm
03:26 17.2 °C 16.3 °C 1022.6 hPa ENE 3.2 km/h 11.3 km/h 95 % 0 mm
03:31 17.1 °C 16.3 °C 1022.9 hPa ENE 4.8 km/h 14.5 km/h 95 % 0 mm
03:36 17.1 °C 16.3 °C 1022.9 hPa NE 3.2 km/h 14.5 km/h 95 % 0 mm
03:41 17.1 °C 16.2 °C 1022.9 hPa ENE 3.2 km/h 12.9 km/h 95 % 0 mm
03:51 17.1 °C 16.2 °C 1022.9 hPa ENE 3.2 km/h 8 km/h 95 % 0 mm
03:56 17.1 °C 16.2 °C 1022.6 hPa NE 3.2 km/h 9.7 km/h 95 % 0 mm
04:01 17.1 °C 16.2 °C 1022.6 hPa ENE 4.2 km/h 5.6 km/h 95 % 0 mm
04:05 17.1 °C 16.2 °C 1022.9 hPa ENE 1.8 km/h 3.7 km/h 95 % 0 mm
04:10 17.1 °C 16.3 °C 1022.9 hPa ENE 1.4 km/h 5.6 km/h 95 % 0 mm
04:16 17.1 °C 16.3 °C 1022.6 hPa ENE 4.8 km/h 11.3 km/h 95 % 0 mm
04:21 17.1 °C 16.3 °C 1022.6 hPa ENE 1.6 km/h 11.3 km/h 95 % 0 mm
04:26 17.1 °C 16.3 °C 1022.6 hPa ENE 3.2 km/h 14.5 km/h 95 % 0 mm
04:31 17.1 °C 16.3 °C 1022.6 hPa ENE 1.6 km/h 8 km/h 95 % 0 mm
04:36 17.1 °C 16.3 °C 1022.6 hPa NE 3.2 km/h 12.9 km/h 95 % 0 mm
04:41 17.1 °C 16.3 °C 1022.6 hPa NE 1.6 km/h 11.3 km/h 95 % 0 mm
04:46 17.1 °C 16.3 °C 1022.6 hPa Calm   4.8 km/h 95 % 0 mm
04:51 17.2 °C 16.3 °C 1022.6 hPa ENE 1.6 km/h 8 km/h 95 % 0 mm
04:56 17.2 °C 16.3 °C 1022.6 hPa ENE 1.6 km/h 11.3 km/h 95 % 0 mm
05:01 17.2 °C 16.3 °C 1022.2 hPa ENE 0.8 km/h 3.7 km/h 95 % 0 mm
05:06 17.2 °C 16.6 °C 1022.6 hPa ENE 3.9 km/h 6.4 km/h 96 % 0 mm
05:11 17.2 °C 16.6 °C 1022.2 hPa ENE 3.7 km/h 5.6 km/h 96 % 0 mm
05:16 17.3 °C 16.6 °C 1022.2 hPa ENE 1.8 km/h 5.6 km/h 96 % 0 mm
05:21 17.3 °C 16.6 °C 1022.2 hPa ENE 3.4 km/h 5.6 km/h 96 % 0 mm
05:26 17.3 °C 16.6 °C 1022.6 hPa NE 4.2 km/h 5.6 km/h 96 % 0 mm
05:31 17.3 °C 16.7 °C 1022.6 hPa East 1.9 km/h 5.6 km/h 96 % 0 mm
05:36 17.3 °C 16.7 °C 1022.6 hPa ENE 2.4 km/h 3.7 km/h 96 % 0 mm
05:41 17.3 °C 16.7 °C 1022.6 hPa ENE 5.6 km/h 14.8 km/h 96 % 0 mm
05:46 17.4 °C 16.7 °C 1022.6 hPa NE 3.2 km/h 7.4 km/h 96 % 0 mm
05:51 17.4 °C 16.7 °C 1022.6 hPa ENE 1.8 km/h 3.7 km/h 96 % 0 mm
05:56 17.4 °C 16.8 °C 1022.6 hPa ENE 3.5 km/h 5.6 km/h 96 % 0 mm
06:01 17.4 °C 16.6 °C 1022.6 hPa ENE 4 km/h 6.4 km/h 95 % 0 mm
06:06 17.4 °C 16.6 °C 1022.2 hPa ENE 3.9 km/h 6.4 km/h 95 % 0 mm
06:11 17.5 °C 16.7 °C 1022.2 hPa ENE 1.6 km/h 5.6 km/h 95 % 0 mm
06:16 17.5 °C 16.7 °C 1022.2 hPa ENE 3.4 km/h 8 km/h 95 % 0 mm
06:21 17.6 °C 16.9 °C 1022.2 hPa ENE 1.8 km/h 5.6 km/h 96 % 0 mm
06:26 17.6 °C 16.9 °C 1022.2 hPa ENE 2.4 km/h 3.7 km/h 96 % 0 mm
06:31 17.6 °C 16.9 °C 1022.2 hPa ENE 0.6 km/h 3.7 km/h 96 % 0 mm
06:36 17.6 °C 16.9 °C 1022.2 hPa ENE 1.8 km/h 3.7 km/h 96 % 0 mm
06:41 17.6 °C 16.9 °C 1022.6 hPa East 4.5 km/h 11.1 km/h 96 % 0 mm
06:46 17.6 °C 16.9 °C 1022.2 hPa ENE 6.6 km/h 11.1 km/h 96 % 0 mm
06:51 17.7 °C 17 °C 1022.6 hPa ENE 3.7 km/h 11.1 km/h 96 % 0 mm
06:57 17.7 °C 17 °C 1022.6 hPa ENE 2.4 km/h 5.6 km/h 96 % 0 mm
07:02 17.7 °C 17 °C 1021.9 hPa ENE 3.1 km/h 5.6 km/h 96 % 0 mm
07:07 17.7 °C 17 °C 1021.9 hPa ENE 0.5 km/h 5.6 km/h 96 % 0 mm
07:12 17.7 °C 17.1 °C 1021.9 hPa ENE 2.4 km/h 7.4 km/h 96 % 0 mm
07:17 17.7 °C 17.1 °C 1022.2 hPa ENE 3.5 km/h 5.6 km/h 96 % 0 mm
07:22 17.8 °C 17.1 °C 1021.9 hPa ENE 2.7 km/h 5.6 km/h 96 % 0 mm
07:27 17.8 °C 17.1 °C 1021.9 hPa ENE 2.3 km/h 3.7 km/h 96 % 0 mm
07:32 17.8 °C 17.1 °C 1021.9 hPa ENE 4.5 km/h 7.4 km/h 96 % 0 mm
07:37 17.8 °C 17.2 °C 1022.2 hPa NE 6.1 km/h 8 km/h 96 % 0 mm
07:42 17.8 °C 17.2 °C 1021.9 hPa ENE 6 km/h 9.3 km/h 96 % 0 mm
07:47 17.8 °C 17.2 °C 1021.9 hPa ENE 3.2 km/h 7.4 km/h 96 % 0 mm
07:52 17.9 °C 17.2 °C 1022.2 hPa ENE 5.1 km/h 13 km/h 96 % 0 mm
07:57 17.9 °C 17.2 °C 1021.9 hPa ENE 6.9 km/h 13 km/h 96 % 0 mm
08:02 17.9 °C 17.2 °C 1021.9 hPa East 4 km/h 8 km/h 96 % 0 mm
08:07 17.9 °C 17.2 °C 1022.2 hPa ENE 7.9 km/h 11.1 km/h 96 % 0 mm
08:12 17.9 °C 17.2 °C 1021.9 hPa ENE 6.9 km/h 14.8 km/h 96 % 0 mm
08:17 17.9 °C 17.2 °C 1022.2 hPa ENE 4.3 km/h 7.4 km/h 96 % 0 mm
08:22 17.9 °C 17.2 °C 1021.9 hPa NE 8.4 km/h 13 km/h 96 % 0 mm
08:27 17.9 °C 17.2 °C 1022.2 hPa ENE 3.4 km/h 7.4 km/h 96 % 0 mm
08:32 17.9 °C 17.2 °C 1021.9 hPa ENE 6.3 km/h 9.3 km/h 96 % 0 mm
08:37 17.9 °C 17.2 °C 1021.9 hPa NE 4 km/h 7.4 km/h 96 % 0 mm
08:42 17.9 °C 17.2 °C 1022.2 hPa ENE 6.4 km/h 13 km/h 96 % 0 mm
08:47 17.8 °C 17.2 °C 1021.9 hPa NE 5.3 km/h 14.8 km/h 96 % 0 mm
08:52 17.8 °C 17.2 °C 1021.9 hPa ENE 3.4 km/h 7.4 km/h 96 % 0 mm
08:57 17.8 °C 17.2 °C 1021.9 hPa NE 6.3 km/h 9.7 km/h 96 % 0 mm
09:02 17.8 °C 16.9 °C 1021.9 hPa NE 5.6 km/h 11.1 km/h 95 % 0 mm
09:07 17.8 °C 16.9 °C 1021.9 hPa ENE 6 km/h 14.8 km/h 95 % 0 mm
09:12 17.8 °C 16.9 °C 1022.2 hPa NE 4 km/h 11.1 km/h 95 % 0 mm
09:17 17.8 °C 16.9 °C 1022.2 hPa ENE 5 km/h 5.6 km/h 95 % 0 mm
09:22 17.7 °C 16.9 °C 1022.2 hPa ENE 6.1 km/h 13 km/h 95 % 0 mm
09:27 17.7 °C 16.9 °C 1022.2 hPa NE 4.7 km/h 11.3 km/h 95 % 0 mm
09:32 17.7 °C 16.8 °C 1022.2 hPa NE 3.5 km/h 7.4 km/h 95 % 0 mm
09:37 17.7 °C 16.9 °C 1021.9 hPa ENE 3.9 km/h 9.3 km/h 95 % 0 mm
09:43 17.7 °C 16.9 °C 1021.9 hPa ENE 4.7 km/h 11.1 km/h 95 % 0 mm
09:48 17.7 °C 16.9 °C 1021.9 hPa ENE 5 km/h 11.1 km/h 95 % 0 mm
09:53 17.7 °C 16.9 °C 1021.9 hPa ENE 5.1 km/h 7.4 km/h 95 % 0 mm
09:58 17.8 °C 16.9 °C 1021.9 hPa East 4.2 km/h 8 km/h 95 % 0 mm
10:03 17.8 °C 17 °C 1021.9 hPa ENE 2.6 km/h 5.6 km/h 95 % 0 mm
10:08 17.8 °C 17 °C 1021.9 hPa ENE 6.8 km/h 13 km/h 95 % 0 mm
10:13 17.8 °C 17 °C 1021.9 hPa NE 6.4 km/h 14.8 km/h 95 % 0 mm
10:18 17.8 °C 17 °C 1021.9 hPa ENE 3.7 km/h 5.6 km/h 95 % 0 mm
10:23 17.8 °C 17 °C 1021.9 hPa ENE 5.8 km/h 11.1 km/h 95 % 0 mm
10:28 17.8 °C 17.2 °C 1021.9 hPa East 4.3 km/h 8 km/h 96 % 0 mm
10:33 17.9 °C 17.2 °C 1022.9 hPa ENE 5.3 km/h 11.1 km/h 96 % 0 mm
10:38 17.9 °C 17.2 °C 1022.9 hPa ENE 7.7 km/h 13 km/h 96 % 0 mm
10:43 17.9 °C 17.2 °C 1022.2 hPa NE 6.4 km/h 11.1 km/h 96 % 0 mm
10:48 17.9 °C 17.3 °C 1021.2 hPa NE 3.5 km/h 5.6 km/h 96 % 0 mm
10:53 18 °C 17.3 °C 1021.6 hPa ENE 3.1 km/h 5.6 km/h 96 % 0 mm
10:58 18.1 °C 17.4 °C 1022.9 hPa East 2.1 km/h 8 km/h 96 % 0 mm
11:04 18.1 °C 17.4 °C 1021.2 hPa NNW 3.2 km/h 7.4 km/h 96 % 0 mm
11:09 18.1 °C 17.4 °C 1020.9 hPa NE 2.7 km/h 5.6 km/h 96 % 0 mm
11:14 18.2 °C 17.6 °C 1020.9 hPa ENE 5.1 km/h 11.1 km/h 96 % 0 mm
11:19 18.3 °C 17.6 °C 1022.9 hPa NE 3.2 km/h 13 km/h 96 % 0 mm
11:24 18.3 °C 17.7 °C 1023.2 hPa East 6 km/h 11.1 km/h 96 % 0 mm
11:29 18.4 °C 17.9 °C 1023.2 hPa ENE 2.7 km/h 5.6 km/h 97 % 0 mm
11:34 18.4 °C 17.9 °C 1020.9 hPa ENE 1.8 km/h 9.3 km/h 97 % 0 mm
11:39 18.4 °C 17.9 °C 1023.2 hPa ENE 2.7 km/h 5.6 km/h 97 % 0 mm
11:44 18.4 °C 17.8 °C 1023.2 hPa ENE 2.6 km/h 5.6 km/h 96 % 0 mm
11:49 18.5 °C 17.8 °C 1023.2 hPa ENE 5 km/h 8 km/h 96 % 0 mm
11:54 18.5 °C 17.8 °C 1020.9 hPa ENE 7.2 km/h 14.8 km/h 96 % 0 mm
11:59 18.5 °C 17.8 °C 1021.9 hPa NE 4.7 km/h 7.4 km/h 96 % 0 mm
12:04 18.6 °C 17.9 °C 1020.9 hPa ENE 6 km/h 11.1 km/h 96 % 0 mm
12:09 18.7 °C 18 °C 1020.9 hPa NE 4.7 km/h 11.1 km/h 96 % 0 mm
12:14 18.7 °C 18 °C 1020.9 hPa ENE 5.1 km/h 6.4 km/h 96 % 0 mm
12:19 18.7 °C 18.1 °C 1020.9 hPa ENE 6 km/h 13 km/h 96 % 0 mm
12:25 18.8 °C 18.1 °C 1020.9 hPa ENE 2.9 km/h 7.4 km/h 96 % 0 mm
12:30 18.9 °C 18.2 °C 1022.6 hPa NE 1.1 km/h 4.8 km/h 96 % 0 mm
12:35 18.9 °C 18.3 °C 1020.5 hPa ENE 3.1 km/h 7.4 km/h 96 % 0 mm
12:40 19 °C 18.3 °C 1022.2 hPa NE 0.5 km/h 5.6 km/h 96 % 0 mm
12:45 19.1 °C 18.4 °C 1020.5 hPa ENE 3.1 km/h 11.1 km/h 96 % 0 mm
12:50 19.2 °C 18.3 °C 1020.5 hPa ENE 2.1 km/h 7.4 km/h 95 % 0 mm
12:55 19.3 °C 18.5 °C 1020.2 hPa ENE 2.9 km/h 5.6 km/h 95 % 0 mm
13:00 19.6 °C 18.9 °C 1020.2 hPa ENE 0.3 km/h 3.7 km/h 96 % 0 mm
13:05 19.8 °C 19 °C 1020.2 hPa ENE 3.2 km/h 7.4 km/h 95 % 0 mm
13:10 20.1 °C 19.2 °C 1020.2 hPa ENE 1.6 km/h 9.3 km/h 95 % 0 mm
13:15 20.2 °C 19.2 °C 1020.2 hPa North 2.3 km/h 5.6 km/h 94 % 0 mm
13:20 20.4 °C 19.1 °C 1021.2 hPa NE 3.9 km/h 5.6 km/h 92 % 0 mm
13:25 20.4 °C 18.9 °C 1020.9 hPa NW 1.6 km/h 3.7 km/h 91 % 0 mm
13:30 20.7 °C 18.9 °C 1020.2 hPa NNE 2.3 km/h 7.4 km/h 90 % 0 mm
13:35 20.9 °C 19.4 °C 1021.2 hPa NNE 0.6 km/h 5.6 km/h 91 % 0 mm
13:40 21.1 °C 19.4 °C 1019.5 hPa ENE 1.3 km/h 6.4 km/h 90 % 0 mm
13:45 21.2 °C 19.1 °C 1019.5 hPa ENE 1.3 km/h 1.9 km/h 88 % 0 mm
13:50 21.2 °C 18.9 °C 1019.2 hPa Calm   1.9 km/h 87 % 0 mm
13:55 21.6 °C 19.7 °C 1019.5 hPa ENE 0.3 km/h 1.9 km/h 89 % 0 mm
14:00 21.9 °C 19.8 °C 1019.2 hPa Calm   1.9 km/h 88 % 0 mm
14:06 22.1 °C 19.6 °C 1019.2 hPa ENE 1.6 km/h 4.8 km/h 86 % 0 mm
14:11 22.2 °C 19.6 °C 1019.2 hPa NE 0.3 km/h 3.7 km/h 85 % 0 mm
14:16 22.3 °C 19.2 °C 1019.5 hPa NE 1.6 km/h 6.4 km/h 83 % 0 mm
14:21 22.3 °C 19.5 °C 1019.2 hPa ENE 0.3 km/h 1.9 km/h 84 % 0 mm
14:26 22.4 °C 19.6 °C 1020.2 hPa ENE 1.6 km/h 4.8 km/h 84 % 0 mm
14:31 22.4 °C 19.4 °C 1019.2 hPa NE 0.8 km/h 5.6 km/h 83 % 0 mm
14:36 22.5 °C 19.4 °C 1019.2 hPa NE 1.6 km/h 4.8 km/h 83 % 0 mm
14:41 22.5 °C 19.3 °C 1018.8 hPa ENE 1.6 km/h 4.8 km/h 82 % 0 mm
14:46 22.5 °C 19.3 °C 1018.8 hPa Calm   3.2 km/h 82 % 0 mm
14:51 22.5 °C 19.3 °C 1020.5 hPa ENE 1.6 km/h 4.8 km/h 82 % 0 mm
14:56 22.5 °C 19.4 °C 1015.5 hPa Calm   4.8 km/h 83 % 0 mm
15:01 22.6 °C 19.5 °C 1017.2 hPa NE 1 km/h 3.7 km/h 83 % 0 mm
15:06 22.6 °C 19.3 °C 1016.8 hPa NE 1.6 km/h 4.8 km/h 82 % 0 mm
15:11 22.5 °C 19.3 °C 1018.2 hPa Calm   3.2 km/h 82 % 0 mm
15:16 22.5 °C 19.3 °C 1018.5 hPa Calm   4.8 km/h 82 % 0 mm
15:21 22.4 °C 19.2 °C 1015.8 hPa NNE 1.6 km/h 4.8 km/h 82 % 0 mm
15:26 22.4 °C 19.2 °C 1019.2 hPa Calm   1.9 km/h 82 % 0 mm
15:31 22.4 °C 19.2 °C 1017.8 hPa Calm     82 % 0.25 mm
15:36 22.3 °C 19.1 °C 1016.8 hPa NNE 1.6 km/h 4.8 km/h 82 % 0 mm
15:41 22.2 °C 19 °C 1016.5 hPa Calm     82 % 0.25 mm
15:46 22.1 °C 18.8 °C 1017.8 hPa NE 0.2 km/h 1.9 km/h 82 % 0.25 mm
15:51 21.9 °C 18.7 °C 1016.8 hPa Calm     82 % 0.25 mm
15:56 21.9 °C 18.7 °C 1017.5 hPa NE 0.2 km/h 1.9 km/h 82 % 0.25 mm
16:01 21.8 °C 18.6 °C 1017.5 hPa NE 0.2 km/h 3.7 km/h 82 % 0.25 mm
16:06 21.8 °C 18.9 °C 1017.5 hPa North 2.1 km/h 6.4 km/h 84 % 0.25 mm
16:11 21.7 °C 18.8 °C 1018.5 hPa NNE 0.3 km/h 1.9 km/h 84 % 0.25 mm
16:16 21.7 °C 18.8 °C 1017.8 hPa NNE 0.2 km/h 1.9 km/h 84 % 0.25 mm
16:21 21.7 °C 18.8 °C 1018.8 hPa NNE 1 km/h 3.2 km/h 84 % 0.25 mm
16:26 21.6 °C 18.8 °C 1018.8 hPa NNE 0.6 km/h 1.9 km/h 84 % 0.25 mm
16:31 21.6 °C 18.8 °C 1018.8 hPa Calm   1.9 km/h 84 % 0 mm
16:36 21.6 °C 18.9 °C 1018.5 hPa NNE 0.2 km/h 1.6 km/h 85 % 0 mm
16:41 21.6 °C 18.7 °C 1018.5 hPa NNE 1 km/h 3.7 km/h 84 % 0 mm
16:46 21.6 °C 18.7 °C 1018.8 hPa Calm     84 % 0 mm
16:51 21.5 °C 18.5 °C 1018.8 hPa Calm     83 % 0 mm
16:56 21.4 °C 18.6 °C 1018.5 hPa Calm     84 % 0 mm
17:01 21.4 °C 18.8 °C 1018.5 hPa Calm     85 % 0 mm
17:06 21.3 °C 18.5 °C 1018.5 hPa Calm     84 % 0 mm
17:11 21.3 °C 18.7 °C 1019.2 hPa Calm     85 % 0 mm
17:16 21.3 °C 18.7 °C 1018.2 hPa Calm     85 % 0 mm
17:21 21.3 °C 18.7 °C 1018.5 hPa Calm     85 % 0 mm
17:27 21.2 °C 18.8 °C 1018.5 hPa Calm     86 % 0 mm
17:29 21.2 °C 18.8 °C 1018.5 hPa Calm     86 % 0 mm
17:34 21.2 °C 18.7 °C 1018.5 hPa Calm     86 % 0 mm
17:39 21.1 °C 18.7 °C 1018.5 hPa Calm     86 % 0 mm
17:44 21.1 °C 18.7 °C 1018.5 hPa Calm     86 % 0 mm
17:49 21.1 °C 18.6 °C 1018.5 hPa Calm     86 % 0 mm
17:50 21.1 °C 18.6 °C 1018.5 hPa Calm     86 % 0 mm
17:55 21 °C 18.6 °C 1018.5 hPa Calm     86 % 0 mm
18:00 21 °C 18.6 °C 1018.8 hPa Calm     86 % 0 mm
18:05 20.9 °C 18.5 °C 1018.8 hPa Calm     86 % 0 mm
18:10 20.8 °C 18.4 °C 1018.8 hPa Calm     86 % 0 mm
18:15 20.8 °C 18.6 °C 1019.2 hPa Calm     87 % 0 mm
18:20 20.7 °C 18.4 °C 1018.8 hPa Calm     87 % 0 mm
18:25 20.6 °C 18.3 °C 1019.2 hPa Calm     87 % 0 mm
18:30 20.4 °C 18.2 °C 1018.8 hPa Calm     87 % 0 mm
18:35 20.3 °C 18.1 °C 1019.2 hPa Calm     87 % 0 mm
18:40 20.2 °C 18 °C 1020.5 hPa Calm     87 % 0 mm
18:45 20.1 °C 18.1 °C 1019.5 hPa Calm     88 % 0 mm
18:50 20 °C 17.9 °C 1019.2 hPa Calm     88 % 0 mm
18:55 19.8 °C 17.8 °C 1019.2 hPa Calm     88 % 0 mm
19:00 19.7 °C 17.8 °C 1019.5 hPa Calm     89 % 0 mm
19:05 19.6 °C 17.7 °C 1019.5 hPa Calm     89 % 0 mm
19:10 19.5 °C 17.6 °C 1019.5 hPa Calm     89 % 0 mm
19:15 19.4 °C 17.6 °C 1019.5 hPa Calm     89 % 0 mm
19:20 19.3 °C 17.4 °C 1019.5 hPa Calm     89 % 0 mm
19:26 19.2 °C 17.4 °C 1019.5 hPa Calm     89 % 0 mm
19:31 19.2 °C 17.3 °C 1019.5 hPa Calm     89 % 0 mm
19:36 19.1 °C 17.4 °C 1019.5 hPa Calm     90 % 0 mm
19:41 19 °C 17.3 °C 1019.5 hPa Calm     90 % 0 mm
19:46 18.9 °C 17.3 °C 1019.9 hPa Calm     90 % 0 mm
19:51 18.9 °C 17.3 °C 1019.9 hPa Calm   1.6 km/h 90 % 0 mm
19:56 18.9 °C 17.4 °C 1019.5 hPa Calm     91 % 0 mm
20:01 18.9 °C 17.4 °C 1019.9 hPa Calm     91 % 0 mm
20:06 18.9 °C 17.6 °C 1019.9 hPa Calm     92 % 0 mm
20:11 18.9 °C 17.6 °C 1021.2 hPa Calm   1.6 km/h 92 % 0 mm
20:16 18.9 °C 17.6 °C 1019.9 hPa Calm     92 % 0 mm
20:21 18.9 °C 17.6 °C 1019.9 hPa Calm     92 % 0 mm
20:26 18.8 °C 17.5 °C 1019.9 hPa Calm     92 % 0 mm
20:31 18.8 °C 17.5 °C 1021.2 hPa Calm     92 % 0 mm
20:36 18.8 °C 17.5 °C 1019.9 hPa Calm     92 % 0 mm
20:41 18.8 °C 17.7 °C 1019.9 hPa Calm     93 % 0 mm
20:46 18.8 °C 17.7 °C 1019.9 hPa Calm     93 % 0 mm
20:51 18.8 °C 17.7 °C 1020.9 hPa Calm     93 % 0 mm
20:56 18.8 °C 17.7 °C 1021.2 hPa Calm   1.6 km/h 93 % 0 mm
21:01 18.8 °C 17.7 °C 1021.2 hPa Calm     93 % 0 mm
21:06 18.8 °C 17.7 °C 1020.9 hPa Calm     93 % 0 mm
21:11 18.8 °C 17.7 °C 1020.9 hPa Calm     93 % 0 mm
21:16 18.8 °C 17.7 °C 1021.2 hPa Calm     93 % 0 mm
21:21 18.8 °C 17.7 °C 1020.9 hPa Calm     93 % 0 mm
21:26 18.8 °C 17.7 °C 1021.2 hPa Calm     93 % 0 mm
21:31 18.8 °C 17.7 °C 1021.2 hPa Calm     93 % 0 mm
21:36 18.8 °C 17.7 °C 1020.9 hPa Calm     93 % 0 mm
21:41 18.8 °C 17.7 °C 1020.9 hPa Calm     93 % 0 mm
21:46 18.8 °C 17.7 °C 1020.9 hPa Calm     93 % 0 mm
21:51 18.8 °C 17.7 °C 1020.9 hPa Calm     93 % 0 mm
21:56 18.9 °C 17.9 °C 1020.9 hPa Calm     94 % 0 mm
22:01 18.9 °C 17.9 °C 1020.9 hPa Calm     94 % 0 mm
22:06 18.9 °C 17.9 °C 1020.9 hPa Calm     94 % 0 mm
22:11 18.9 °C 17.9 °C 1020.9 hPa Calm     94 % 0 mm
22:16 19 °C 18 °C 1020.9 hPa Calm     94 % 0 mm
22:21 19.1 °C 18.1 °C 1020.9 hPa Calm     94 % 0 mm
22:26 19.1 °C 18.2 °C 1020.9 hPa Calm     95 % 0 mm
22:31 19.1 °C 18.3 °C 1020.9 hPa Calm     95 % 0 mm
22:36 19.1 °C 18.3 °C 1020.9 hPa Calm     95 % 0 mm
22:41 19.1 °C 18.3 °C 1020.9 hPa NNE 0.2 km/h 1.9 km/h 95 % 0 mm
22:46 19.2 °C 18.3 °C 1020.5 hPa Calm     95 % 0 mm
22:52 19.2 °C 18.3 °C 1020.5 hPa Calm   1.9 km/h 95 % 0 mm
22:57 19.2 °C 18.4 °C 1019.9 hPa Calm   1.9 km/h 95 % 0 mm
23:02 19.2 °C 18.4 °C 1020.5 hPa Calm     95 % 0 mm
23:07 19.3 °C 18.4 °C 1019.9 hPa Calm     95 % 0 mm
23:12 19.3 °C 18.4 °C 1019.5 hPa Calm     95 % 0 mm
23:17 19.3 °C 18.4 °C 1019.5 hPa Calm     95 % 0 mm
23:22 19.3 °C 18.4 °C 1019.5 hPa Calm     95 % 0 mm
23:27 19.3 °C 18.4 °C 1019.9 hPa Calm     95 % 0 mm
23:32 19.3 °C 18.4 °C 1020.5 hPa Calm     95 % 0 mm
23:37 19.3 °C 18.5 °C 1019.5 hPa Calm     95 % 0 mm
23:42 19.3 °C 18.5 °C 1019.5 hPa Calm     95 % 0 mm
23:47 19.3 °C 18.5 °C 1020.5 hPa Calm   1.9 km/h 95 % 0 mm
23:52 19.3 °C 18.5 °C 1020.5 hPa Calm     95 % 0 mm
23:57 19.3 °C 18.5 °C 1019.5 hPa Calm     95 % 0 mm
Crab Meadow Weather
Compliments of Weather Underground - 3 mb

Script developed by  Jim McMurry - jmcmurry@mwt.net Adapted for the template by  Wim van der Kuil - Leuven-Template.eu

Weather Terms: Heat Index - The apparent temperature that describes the combined effect of high temperatures and high levels of humidity, which reduces the body's ability to cool itself.